Time,TemperatureF,DewpointF,PressureIn,WindDirection,WindDirectionDegrees,WindSpeedMPH,WindSpeedGustMPH,Humidity,HourlyPrecipIn,Conditions,Clouds,dailyrainin,SoftwareType,DateUTC
2013-09-19 00:09:00,83.1,65.3,29.74,South,180,1.1,-999.0,55,-99.99,,,0.00,Acu-Link.com,2013-09-19 05:09:00,
2013-09-19 00:24:00,83.8,66.4,29.74,SSE,157,1.1,-999.0,56,-99.99,,,0.00,Acu-Link.com,2013-09-19 05:24:00,
2013-09-19 00:39:00,83.7,66.3,29.74,West,270,1.1,-999.0,56,-99.99,,,0.00,Acu-Link.com,2013-09-19 05:39:00,
2013-09-19 00:54:00,83.8,67.0,29.73,SE,135,1.1,-999.0,57,-99.99,,,0.00,Acu-Link.com,2013-09-19 05:54:00,
2013-09-19 01:09:00,83.7,67.8,29.73,South,180,0.0,-999.0,59,-99.99,,,0.00,Acu-Link.com,2013-09-19 06:09:00,
2013-09-19 01:25:00,83.5,68.6,29.74,West,270,1.1,-999.0,61,-99.99,,,0.00,Acu-Link.com,2013-09-19 06:25:00,
2013-09-19 01:40:00,83.5,69.5,29.74,SSE,157,0.0,-999.0,63,-99.99,,,0.00,Acu-Link.com,2013-09-19 06:40:00,
2013-09-19 01:55:00,83.5,69.5,29.73,SSW,202,0.0,-999.0,63,-99.99,,,0.00,Acu-Link.com,2013-09-19 06:55:00,
2013-09-19 02:10:00,83.3,69.4,29.74,SSW,202,1.1,-999.0,63,-99.99,,,0.00,Acu-Link.com,2013-09-19 07:10:00,
2013-09-19 02:25:00,83.1,69.7,29.74,SE,135,0.0,-999.0,64,-99.99,,,0.00,Acu-Link.com,2013-09-19 07:25:00,
2013-09-19 02:41:00,82.9,69.5,29.73,ESE,112,0.0,-999.0,64,-99.99,,,0.00,Acu-Link.com,2013-09-19 07:41:00,
2013-09-19 02:56:00,82.4,69.4,29.73,South,180,0.0,-999.0,65,-99.99,,,0.00,Acu-Link.com,2013-09-19 07:56:00,
2013-09-19 03:11:00,82.4,69.4,29.73,ESE,112,0.0,-999.0,65,-99.99,,,0.00,Acu-Link.com,2013-09-19 08:11:00,
2013-09-19 03:27:00,82.0,69.5,29.73,SSW,202,0.0,-999.0,66,-99.99,,,0.00,Acu-Link.com,2013-09-19 08:27:00,
2013-09-19 03:42:00,81.9,69.4,29.73,ESE,112,0.0,-999.0,66,-99.99,,,0.00,Acu-Link.com,2013-09-19 08:42:00,
2013-09-19 03:57:00,81.5,69.5,29.73,SE,135,0.0,-999.0,67,-99.99,,,0.00,Acu-Link.com,2013-09-19 08:57:00,
2013-09-19 04:12:00,81.1,69.1,29.73,SE,135,0.0,-999.0,67,-99.99,,,0.00,Acu-Link.com,2013-09-19 09:12:00,
2013-09-19 04:28:00,80.6,69.0,29.73,SSW,202,0.0,-999.0,68,-99.99,,,0.00,Acu-Link.com,2013-09-19 09:28:00,
2013-09-19 04:43:00,79.7,69.0,29.73,South,180,0.0,-999.0,70,-99.99,,,0.00,Acu-Link.com,2013-09-19 09:43:00,
2013-09-19 04:58:00,78.4,69.8,29.73,South,180,0.0,-999.0,75,-99.99,,,0.00,Acu-Link.com,2013-09-19 09:58:00,
2013-09-19 05:13:00,78.3,69.7,29.73,SSW,202,0.0,-999.0,75,-99.99,,,0.00,Acu-Link.com,2013-09-19 10:13:00,
2013-09-19 05:29:00,78.1,69.5,29.73,South,180,0.0,-999.0,75,-99.99,,,0.00,Acu-Link.com,2013-09-19 10:29:00,
2013-09-19 05:44:00,77.4,70.3,29.73,South,180,0.0,-999.0,79,-99.99,,,0.00,Acu-Link.com,2013-09-19 10:44:00,
2013-09-19 05:59:00,77.0,69.2,29.74,South,180,0.0,-999.0,77,-99.99,,,0.00,Acu-Link.com,2013-09-19 10:59:00,
2013-09-19 06:14:00,77.0,68.8,29.74,South,180,0.0,-999.0,76,-99.99,,,0.00,Acu-Link.com,2013-09-19 11:14:00,
2013-09-19 06:29:00,77.0,68.8,29.74,South,180,0.0,-999.0,76,-99.99,,,0.00,Acu-Link.com,2013-09-19 11:29:00,
2013-09-19 06:45:00,76.8,69.0,29.74,South,180,0.0,-999.0,77,-99.99,,,0.00,Acu-Link.com,2013-09-19 11:45:00,
2013-09-19 07:00:00,76.8,69.0,29.75,South,180,0.0,-999.0,77,-99.99,,,0.00,Acu-Link.com,2013-09-19 12:00:00,
2013-09-19 07:15:00,76.6,68.9,29.75,South,180,0.0,-999.0,77,-99.99,,,0.00,Acu-Link.com,2013-09-19 12:15:00,
2013-09-19 07:30:00,76.8,69.0,29.76,SE,135,0.0,-999.0,77,-99.99,,,0.00,Acu-Link.com,2013-09-19 12:30:00,
2013-09-19 07:45:00,77.0,69.6,29.76,South,180,0.0,-999.0,78,-99.99,,,0.00,Acu-Link.com,2013-09-19 12:45:00,
2013-09-19 08:00:00,77.2,69.8,29.77,SSE,157,0.0,-999.0,78,-99.99,,,0.00,Acu-Link.com,2013-09-19 13:00:00,
2013-09-19 08:16:00,77.7,70.3,29.77,SE,135,0.0,-999.0,78,-99.99,,,0.00,Acu-Link.com,2013-09-19 13:16:00,
2013-09-19 08:31:00,78.4,70.6,29.78,SSW,202,0.0,-999.0,77,-99.99,,,0.00,Acu-Link.com,2013-09-19 13:31:00,
2013-09-19 08:46:00,79.0,71.1,29.78,SSE,157,0.0,-999.0,77,-99.99,,,0.00,Acu-Link.com,2013-09-19 13:46:00,
2013-09-19 09:01:00,79.3,71.5,29.79,South,180,0.0,-999.0,77,-99.99,,,0.00,Acu-Link.com,2013-09-19 14:01:00,
2013-09-19 09:16:00,80.2,72.0,29.78,SE,135,0.0,-999.0,76,-99.99,,,0.00,Acu-Link.com,2013-09-19 14:16:00,
2013-09-19 09:32:00,80.2,72.4,29.79,South,180,0.0,-999.0,77,-99.99,,,0.00,Acu-Link.com,2013-09-19 14:32:00,
2013-09-19 09:47:00,81.0,73.1,29.80,South,180,0.0,-999.0,77,-99.99,,,0.00,Acu-Link.com,2013-09-19 14:47:00,
2013-09-19 10:02:00,82.0,73.7,29.80,SW,225,1.1,-999.0,76,-99.99,,,0.00,Acu-Link.com,2013-09-19 15:02:00,
2013-09-19 10:17:00,82.0,73.3,29.80,NNW,337,1.1,-999.0,75,-99.99,,,0.00,Acu-Link.com,2013-09-19 15:17:00,
2013-09-19 10:32:00,82.9,73.4,29.80,SSW,202,0.0,-999.0,73,-99.99,,,0.00,Acu-Link.com,2013-09-19 15:32:00,
2013-09-19 10:48:00,83.1,73.5,29.81,South,180,0.0,-999.0,73,-99.99,,,0.00,Acu-Link.com,2013-09-19 15:48:00,
2013-09-19 11:03:00,82.9,73.0,29.80,SSW,202,0.0,-999.0,72,-99.99,,,0.00,Acu-Link.com,2013-09-19 16:03:00,
2013-09-19 11:18:00,83.7,73.2,29.81,SSE,157,1.1,-999.0,71,-99.99,,,0.00,Acu-Link.com,2013-09-19 16:18:00,
2013-09-19 11:33:00,84.4,73.5,29.81,South,180,0.0,-999.0,70,-99.99,,,0.00,Acu-Link.com,2013-09-19 16:33:00,
2013-09-19 11:49:00,85.1,73.3,29.80,South,180,0.0,-999.0,68,-99.99,,,0.00,Acu-Link.com,2013-09-19 16:49:00,
2013-09-19 12:04:00,85.3,73.1,29.80,SSE,157,0.0,-999.0,67,-99.99,,,0.00,Acu-Link.com,2013-09-19 17:04:00,
2013-09-19 12:19:00,86.0,73.3,29.80,SSW,202,0.0,-999.0,66,-99.99,,,0.00,Acu-Link.com,2013-09-19 17:19:00,
2013-09-19 12:34:00,86.4,73.2,29.79,SE,135,1.1,-999.0,65,-99.99,,,0.00,Acu-Link.com,2013-09-19 17:34:00,
2013-09-19 12:49:00,86.7,72.6,29.79,SSW,202,1.6,-999.0,63,-99.99,,,0.00,Acu-Link.com,2013-09-19 17:49:00,
2013-09-19 13:04:00,87.3,72.1,29.79,SSE,157,0.0,-999.0,61,-99.99,,,0.00,Acu-Link.com,2013-09-19 18:04:00,
2013-09-19 13:19:00,87.3,72.6,29.78,South,180,0.0,-999.0,62,-99.99,,,0.00,Acu-Link.com,2013-09-19 18:19:00,
2013-09-19 13:35:00,87.3,72.1,29.77,SSW,202,0.0,-999.0,61,-99.99,,,0.00,Acu-Link.com,2013-09-19 18:35:00,
2013-09-19 13:50:00,88.3,71.7,29.76,WSW,247,1.6,-999.0,58,-99.99,,,0.00,Acu-Link.com,2013-09-19 18:50:00,
2013-09-19 14:05:00,88.9,72.2,29.76,South,180,1.6,-999.0,58,-99.99,,,0.00,Acu-Link.com,2013-09-19 19:05:00,
2013-09-19 14:20:00,87.1,71.0,29.76,West,270,1.1,-999.0,59,-99.99,,,0.00,Acu-Link.com,2013-09-19 19:20:00,
2013-09-19 14:36:00,88.3,71.1,29.74,SW,225,1.6,-999.0,57,-99.99,,,0.00,Acu-Link.com,2013-09-19 19:36:00,
2013-09-19 14:51:00,88.2,70.5,29.73,WSW,247,1.6,-999.0,56,-99.99,,,0.00,Acu-Link.com,2013-09-19 19:51:00,
2013-09-19 15:06:00,88.7,71.0,29.73,SSW,202,0.0,-999.0,56,-99.99,,,0.00,Acu-Link.com,2013-09-19 20:06:00,
2013-09-19 15:21:00,89.2,70.9,29.73,West,270,0.0,-999.0,55,-99.99,,,0.00,Acu-Link.com,2013-09-19 20:21:00,
2013-09-19 15:36:00,89.1,70.2,29.71,SW,225,1.1,-999.0,54,-99.99,,,0.00,Acu-Link.com,2013-09-19 20:36:00,
2013-09-19 15:52:00,90.0,71.0,29.71,SW,225,1.6,-999.0,54,-99.99,,,0.00,Acu-Link.com,2013-09-19 20:52:00,
2013-09-19 16:07:00,91.4,70.1,29.70,WNW,292,2.2,-999.0,50,-99.99,,,0.00,Acu-Link.com,2013-09-19 21:07:00,
2013-09-19 16:22:00,90.7,70.6,29.69,South,180,0.0,-999.0,52,-99.99,,,0.00,Acu-Link.com,2013-09-19 21:22:00,
2013-09-19 16:37:00,90.5,70.4,29.68,SSW,202,0.0,-999.0,52,-99.99,,,0.00,Acu-Link.com,2013-09-19 21:37:00,
2013-09-19 16:52:00,91.0,69.8,29.68,NNE,22,2.2,-999.0,50,-99.99,,,0.00,Acu-Link.com,2013-09-19 21:52:00,
2013-09-19 17:08:00,91.6,70.3,29.68,SW,225,1.6,-999.0,50,-99.99,,,0.00,Acu-Link.com,2013-09-19 22:08:00,
2013-09-19 17:23:00,89.6,70.2,29.68,West,270,1.6,-999.0,53,-99.99,,,0.00,Acu-Link.com,2013-09-19 22:23:00,
2013-09-19 17:38:00,90.3,69.7,29.67,NNE,22,1.6,-999.0,51,-99.99,,,0.00,Acu-Link.com,2013-09-19 22:38:00,
2013-09-19 17:53:00,89.6,70.2,29.68,South,180,0.0,-999.0,53,-99.99,,,0.00,Acu-Link.com,2013-09-19 22:53:00,
2013-09-19 18:08:00,89.1,70.2,29.68,South,180,0.0,-999.0,54,-99.99,,,0.00,Acu-Link.com,2013-09-19 23:08:00,
2013-09-19 18:24:00,88.3,69.5,29.68,SSE,157,0.0,-999.0,54,-99.99,,,0.00,Acu-Link.com,2013-09-19 23:24:00,
2013-09-19 18:39:00,87.8,69.6,29.68,South,180,0.0,-999.0,55,-99.99,,,0.00,Acu-Link.com,2013-09-19 23:39:00,
2013-09-19 18:54:00,86.7,71.6,29.68,East,90,0.0,-999.0,61,-99.99,,,0.00,Acu-Link.com,2013-09-19 23:54:00,
2013-09-19 19:09:00,84.6,71.9,29.69,South,180,0.0,-999.0,66,-99.99,,,0.00,Acu-Link.com,2013-09-20 00:09:00,
2013-09-19 19:24:00,83.5,71.8,29.69,South,180,0.0,-999.0,68,-99.99,,,0.00,Acu-Link.com,2013-09-20 00:24:00,
2013-09-19 19:39:00,83.1,71.9,29.69,NE,45,0.0,-999.0,69,-99.99,,,0.00,Acu-Link.com,2013-09-20 00:39:00,
2013-09-19 19:55:00,81.3,72.6,29.71,SSE,157,2.2,-999.0,75,-99.99,,,0.00,Acu-Link.com,2013-09-20 00:55:00,
2013-09-19 20:10:00,79.3,71.9,29.72,WSW,247,0.0,-999.0,78,-99.99,,,0.00,Acu-Link.com,2013-09-20 01:10:00,
2013-09-19 20:25:00,78.1,71.0,29.72,South,180,1.6,-999.0,79,-99.99,,,0.00,Acu-Link.com,2013-09-20 01:25:00,
2013-09-19 20:40:00,75.4,72.9,29.74,East,90,1.1,-999.0,92,-99.99,,,0.17,Acu-Link.com,2013-09-20 01:40:00,
2013-09-19 20:55:00,74.3,72.5,29.75,SSW,202,1.1,-999.0,94,-99.99,,,0.28,Acu-Link.com,2013-09-20 01:55:00,
2013-09-19 21:11:00,73.0,71.2,29.75,NNE,22,0.0,-999.0,94,-99.99,,,0.32,Acu-Link.com,2013-09-20 02:11:00,
2013-09-19 21:26:00,72.9,71.0,29.74,SW,225,0.0,-999.0,94,-99.99,,,0.33,Acu-Link.com,2013-09-20 02:26:00,
2013-09-19 21:41:00,72.5,70.7,29.74,South,180,0.0,-999.0,94,-99.99,,,0.37,Acu-Link.com,2013-09-20 02:41:00,
2013-09-19 21:56:00,72.3,70.8,29.74,WNW,292,0.0,-999.0,95,-99.99,,,0.38,Acu-Link.com,2013-09-20 02:56:00,
2013-09-19 22:12:00,72.1,70.9,29.75,SSW,202,0.0,-999.0,96,-99.99,,,0.39,Acu-Link.com,2013-09-20 03:12:00,
2013-09-19 22:27:00,72.3,71.1,29.75,SW,225,0.0,-999.0,96,-99.99,,,0.40,Acu-Link.com,2013-09-20 03:27:00,
2013-09-19 22:42:00,72.5,71.6,29.74,North,0,1.6,-999.0,97,-99.99,,,0.41,Acu-Link.com,2013-09-20 03:42:00,
2013-09-19 22:57:00,72.9,72.0,29.75,North,0,0.0,-999.0,97,-99.99,,,0.43,Acu-Link.com,2013-09-20 03:57:00,
2013-09-19 23:12:00,73.0,72.1,29.74,NE,45,0.0,-999.0,97,-99.99,,,0.43,Acu-Link.com,2013-09-20 04:12:00,
2013-09-19 23:28:00,72.9,72.0,29.74,ESE,112,1.1,-999.0,97,-99.99,,,0.45,Acu-Link.com,2013-09-20 04:28:00,
2013-09-19 23:43:00,72.9,72.0,29.74,West,270,0.0,-999.0,97,-99.99,,,0.45,Acu-Link.com,2013-09-20 04:43:00,
2013-09-19 23:58:00,72.7,71.8,29.74,ESE,112,0.0,-999.0,97,-99.99,,,0.46,Acu-Link.com,2013-09-20 04:58:00,